This is the latest recevied weather packets stored in our database for station/object SR9WXP. If no packets are shown the sender has not sent any weather packets the latest 1 day(s).
| Time | Temp. | Humidity | Pressure | Rain* | Wind** | Luminosity | Snow |
|---|---|---|---|---|---|---|---|
| 1777952546 | 7.78° C | 55% | 853.4 hPa | - | 4.02 m/s, 171° | - | - |
| 1777952422 | 7.78° C | 55% | 853.3 hPa | - | 4.47 m/s, 169° | - | - |
| 1777952303 | 7.78° C | 55% | 853.4 hPa | - | 4.02 m/s, 176° | - | - |
| 1777952184 | 7.78° C | 55% | 853.5 hPa | - | 4.02 m/s, 178° | - | - |
| 1777952122 | 7.78° C | 55% | 853.6 hPa | - | 4.02 m/s, 177° | - | - |
| 1777951943 | 7.78° C | 55% | 853.6 hPa | - | 3.58 m/s, 171° | - | - |
| 1777951819 | 7.78° C | 55% | 853.6 hPa | - | 4.02 m/s, 180° | - | - |
| 1777951700 | 7.78° C | 55% | 853.6 hPa | - | 4.02 m/s, 181° | - | - |
| 1777951580 | 7.78° C | 55% | 853.6 hPa | - | 4.02 m/s, 177° | - | - |
| 1777951518 | 7.78° C | 55% | 853.6 hPa | - | 4.02 m/s, 185° | - | - |
| 1777951339 | 7.78° C | 55% | 853.7 hPa | - | 4.02 m/s, 176° | - | - |
| 1777951215 | 7.78° C | 55% | 853.6 hPa | - | 4.47 m/s, 176° | - | - |
| 1777951096 | 7.78° C | 55% | 853.6 hPa | - | 4.47 m/s, 176° | - | - |
| 1777950977 | 7.78° C | 55% | 853.6 hPa | - | 4.02 m/s, 171° | - | - |
| 1777950915 | 7.78° C | 55% | 853.6 hPa | - | 4.47 m/s, 174° | - | - |
| 1777950737 | 7.78° C | 55% | 853.8 hPa | - | 4.02 m/s, 169° | - | - |
| 1777950613 | 7.78° C | 54% | 853.8 hPa | - | 4.47 m/s, 167° | - | - |
| 1777950493 | 7.78° C | 54% | 853.8 hPa | - | 4.92 m/s, 167° | - | - |
| 1777950373 | 7.78° C | 54% | 853.8 hPa | - | 4.02 m/s, 171° | - | - |
| 1777950313 | 7.78° C | 54% | 853.8 hPa | - | 3.58 m/s, 171° | - | - |
| 1777950134 | 7.78° C | 54% | 853.8 hPa | - | 3.13 m/s, 176° | - | - |
| 1777950010 | 7.78° C | 54% | 853.9 hPa | - | 3.58 m/s, 179° | - | - |
| 1777949771 | 7.78° C | 54% | 854 hPa | - | 4.02 m/s, 166° | - | - |
| 1777949709 | 7.78° C | 54% | 854 hPa | - | 4.02 m/s, 169° | - | - |
| 1777949650 | 7.78° C | 54% | 854 hPa | - | 3.58 m/s, 170° | - | - |
* Rain since midnight (hover to see other rain measurements)
** Current wind speed in m/s (hover to see current wind gust speed)